TITAN 3C TRANSTAGE R/B, 1863

Orbit data source: Space-Track

TITAN 3C TRANSTAGE R/B, 1863 is space debris in HEO originally from a launch on Tue, 21 Dec 1965 UTC launched from the Air Force Eastern Test Range (AFETR). Debris objects in space refer to the collection of defunct objects orbiting the Earth. Examples of debris include non-operational satellites, rocket bodies, and fragments generated from explosions, collisions, or faulty payload assembly.

Loading next visibility...
Identifier
1863, 1965-108A
Orbit
HEO
Country
Flag of USUS
Related business
Manufacturer
Martin Marietta
Mission
Spacecraft
Bus & Motor
TRANSTAGE, Unknown motor
Mass
~2,050 kg wet, 1,950 kg dry
Launch date (UTC)
1965-12-21 (60 years ago)
Launch vehicle
Unknown
Launch site
Air Force Eastern Test Range (AFETR)
Object type
Payload
Rocket body
Debris
Shape & HBR
Unknown
Radar Cross Section
Large (>1 m²)

Expand to show TLE details & history
Last TLE update: 9 hours ago

TLE from 9 hours ago
0 TITAN 3C TRANSTAGE R/B
1 01863U 65108A   26070.79468869  .00003157  00000-0  13389-2 0  9992
2 01863  26.8260 291.6728 6001372 356.9563   0.6653  3.99924710364462
Epoch: 2026-03-11T19:04Z
TLE epoch observation values (Epoch: 2026-03-11T19:04:21.102Z)
Latitude
-0.00017°
Longitude
-163.86291°
Altitude
331.416 km
Speed
9.749 km/s
True Right ascension
19h 26m 42s
True Declination
0° 00' 01"
Sunlit
Object was in daylight at epoch
Visualization orbit readout
Latitude
Unknown
Longitude
Unknown
Altitude
Unknown
Speed
Unknown
Apparent Right ascension
Unknown
Apparent Declination
Unknown
Sunlit
N/A
Visualization observer readout
Local Sidereal Time
08:21:49
Azimuth
Unknown
Elevation
Unknown
Doppler factor
Unknown
Orbital elements
Apogee altitude
20,454.675 km
Perigee altitude
327.19 km
Semi-major axis
16,769.069 km
Eccentricity
0.60014
Inclination
26.826°
RAAN
291.6728°
Arg. of periapsis
356.9563°
True anomaly
3.32695°
Mean anomaly
0.6653°
Eccentric anomaly
1.66347°
Mean motion
0.99949 °/min
Orbital period
360.18 mins
BSTAR
0.0013389
Loading maneuver chart data...
Computing Atmospheric mass density...

Documentation

Showing up to 5 results
|